Lid_Strength_Index
3 3 3 1 3 4 4 2 1 2 2 2 2 1 1 1 1 1 1 2 3 2 2 3 3 2 2 3 2 2 4 5 7 6 5 4 6 7 4 6 5 6 5
4 4 4 3 2 1 1 3 3 2 1 1 1 1 1 1 1 2 3 2 3 3 4 4 3 2 3 3 3 3 4 5 6 7 7 6 7 7 7 6 6 6 7
4 4 4 4 4 3 2 1 1 1 2 1 1 1 1 1 1 1 2 3 3 3 3 4 3 2 3 3 4 4 4 5 6 7 8 6 8 8 8 7 7 7 5
4 4 4 4 3 3 3 2 1 1 1 1 1 1 1 1 1 1 2 2 3 3 3 3 3 4 4 3 4 4 4 6 6 7 7 7 7 8 8 8 8 7 6
5 5 5 4 3 3 3 2 1 1 1 1 1 1 1 1 1 1 1 2 3 3 3 3 3 3 3 3 4 4 5 5 6 7 7 7 8 8 8 7 8 7 7
4 4 3 3 3 3 2 2 2 2 1 1 1 1 1 1 4 6 3 1 2 3 3 4 3 4 4 5 4 4 5 6 7 7 7 8 8 8 8 8 8 8 9
2 2 2 1 2 2 2 2 2 2 2 2 2 1 2 1 5 6 7 2 2 2 3 3 4 3 5 4 5 6 6 6 6 6 7 7 8 7 7 7 7 8 8
2 2 2 2 2 2 2 2 2 2 2 2 2 2 2 1 5 5 7 5 1 2 2 3 3 4 4 5 5 6 5 6 6 6 6 6 7 6 6 7 8 7 7
2 2 2 2 2 2 2 2 2 2 2 3 2 2 2 2 5 6 5 2 3 2 2 3 3 4 7 8 5 6 6 6 8 7 7 8 8 8 7 6 7 8 9
2 2 2 2 2 2 2 2 1 1 2 2 2 2 2 2 4 6 6 2 2 2 2 3 6 5 10 9 5 7 7 9 9 9 8 8 7 7 6 6 7 8 9
1 1 2 2 2 2 2 2 2 2 2 2 2 2 2 2 2 5 6 3 2 2 3 2 3 7 10 10 7 7 8 10 9 8 8 8 7 7 6 6 6 8 8
1 2 2 2 2 1 2 2 2 2 2 3 3 3 2 2 4 4 6 8 5 2 3 2 3 10 10 11 9 10 11 10 9 9 9 9 9 8 7 6 6 6 6
2 2 2 2 2 2 2 2 2 2 3 3 3 3 3 2 2 4 6 7 9 7 3 3 9 11 11 10 9 12 11 10 10 9 9 9 8 8 7 7 7 6 7
2 2 2 2 2 2 2 2 2 3 3 3 3 3 3 3 2 2 1 1 6 7 6 5 5 7 8 8 10 10 10 9 9 10 9 9 8 8 8 7 9 7 7
2 2 2 2 2 2 2 2 2 2 3 3 3 3 3 4 3 4 6 4 4 4 7 8 8 10 9 9 10 9 9 9 10 9 9 9 9 8 8 8 8 8 8
3 2 2 2 2 2 2 2 4 6 8 8 9 7 3 6 7 8 8 9 9 9 7 8 9 9 9 9 10 10 10 10 10 10 9 9 9 9 9 8 9 9 9
3 2 3 3 3 4 4 4 4 3 5 7 9 9 10 9 10 10 10 10 11 10 6 8 8 9 9 9 10 10 10 10 10 10 9 9 10 10 9 8 8 8 8
2 4 4 4 4 4 4 5 5 5 5 4 4 7 8 9 10 10 10 10 10 8 7 8 8 8 9 9 10 10 11 10 10 10 9 10 10 9 8 8 8 8 8
3 3 3 3 3 4 4 5 6 7 6 6 6 7 8 10 10 10 10 8 8 8 7 8 9 8 8 9 9 10 10 9 10 9 10 9 9 9 8 8 8 11 10
3 4 5 3 3 4 4 5 6 8 8 8 9 9 8 10 9 8 8 8 7 7 8 8 8 8 9 9 9 9 10 10 9 9 10 9 9 8 8 8 8 8 9
2 3 7 3 3 4 4 5 6 7 8 8 8 9 13 12 10 8 8 7 7 7 7 8 9 8 9 9 9 9 9 10 9 9 9 9 8 8 8 7 8 8 8
3 3 3 3 3 4 4 4 5 6 7 8 8 8 12 8 8 8 7 7 7 7 8 8 8 8 9 9 9 9 9 9 10 9 9 8 7 7 7 7 7 7 7
3 4 4 3 3 5 4 4 5 6 7 8 8 8 8 8 8 8 9 9 8 9 9 8 8 9 8 8 8 8 9 9 9 8 7 7 7 7 7 7 7 7 7
3 4 4 4 3 4 4 4 4 6 6 7 8 8 8 8 7 8 8 8 9 9 9 9 8 8 8 9 8 8 8 8 7 7 7 7 7 9 7 7 7 7 7
3 3 3 3 3 3 4 4 4 5 5 6 6 7 7 7 7 7 7 8 8 8 8 8 9 9 9 8 8 7 11 13 8 10 7 6 7 7 7 7 7 7 7
4 4 4 3 4 4 3 4 4 4 5 5 6 7 6 7 7 7 7 7 8 7 8 7 8 8 8 8 7 12 13 13 11 13 7 6 6 6 6 7 6 7 7